www.pogodaiklimat.ru
ПОГОДА в Сосново-Озерском
Время
(UTC), дата
09 21.05
12 21.05
15 21.05
18 21.05
21 21.05
00 22.05
03 22.05
06 22.05
09 22.05
12 22.05
15 22.05
18 22.05
21 22.05
00 23.05
03 23.05
06 23.05
09 23.05
12 23.05
15 23.05
18 23.05
21 23.05
00 24.05
03 24.05
06 24.05
09 24.05
12 24.05
15 24.05
18 24.05
21 24.05
00 25.05
03 25.05
06 25.05
09 25.05
12 25.05
15 25.05
18 25.05
21 25.05
00 26.05
03 26.05
06 26.05
09 26.05
12 26.05
15 26.05
18 26.05
21 26.05
00 27.05
03 27.05
06 27.05
09 27.05
12 27.05
15 27.05
18 27.05
21 27.05
00 28.05
03 28.05
06 28.05
Ветер
(напр.,м/с)
Видим. Явления Облачность Т
(С)
Тd
(С)
f
(%)
Тe
(С)
Тes
(С)
Комфортность P
(гПа)
Po
(гПа)
Тmin
(С)
Tmax
(С)
R
(мм)
R24
(мм)
S
(см)
В 3
{11}
50 км 10/4 600 м
[Cb calv Ac cuf Ci sp]
+15.8 -0.3 33 +16 +17 1009.2 903.0
СВ 3
{13}
50 км 10/6 600 м
[Cb cap Ac cuf Ci sp]
+12.6 +1.2 46 +12 +12 1012.4 904.8 +18.2
СВ 7-11
{13}
н/о 10/6 600 м
[Cb cap Ac cuf]
+8.6 +3.7 71 +5 +5 1016.1 906.7
СВ 5
{11}
н/о 10/3 600 м
[Cb cap Ac cuf Ci fib]
+7.5 +3.1 74 +4 +4 1017.5 907.6
СВ 4 50 км 4/3 1000 м
[Cb cap Ci sp]
+3.8 +1.7 86 -1 -1 1019.7 908.1
СВ 5 50 км 9/3 1000 м
[Cb cap Ac cuf Ci sp]
+9.1 +2.6 64 +6 +7 1018.7 909.3 +3.6
СВ 6
{10}
50 км 6/6 1000 м
[Cu med, cong]
+14.9 +0.6 38 +13 +16 1016.5 909.3
СВ 7-11
{13}
50 км 9/8 1000 м
[Cu med, cong Ci fib]
+16.4 -3.2 26 +15 +16 1015.5 908.9
СВ 5
{12}
50 км 8/8 600 м
[Cb calv]
+17.6 -5.7 20 +17 +18 1015.0 908.7
С 4
{10}
50 км 8/3 600 м
[Cb calv Ac cuf Ci sp]
+13.4 +2.7 48 +12 +12 1017.7 909.9 +18.2
СВ 2 50 км 4/3
[Cb cap Ac cuf Ci sp]
+7.6 -1.8 51 +6 +6 1021.5 911.1
СВ 1 н/о 3/0
[Ac lent Ci sp]
+3.7 -2.5 64 +3 +3 1024.3 912.1
СВ 2 н/о 1/0
[Ci fib]
+3.5 -3.2 62 +1 +1 1024.6 912.3
З 1 50 км 3/0
[Ci fib]
+11.6 -3.2 35 +12 +18 1021.1 912.1 +1.8
С 2 50 км 6/0
[Ci sp]
+17.1 -4.6 22 +18 +30 опасность
простуды
1016.8 910.2
СЗ 4 50 км 10/0
[Ci sp]
+19.7 -1.3 24 +20 +28 1013.2 907.9
СЗ 4 50 км 8/4 600 м
[Cb cap Ci sp]
+18.6 +2.5 34 +19 +21 1011.3 906.0
С 6
{10}
50 км 8/3 1000 м
[Sc diur, vesp Ac cuf Ci sp]
+17.7 +0.7 32 +17 +17 1012.1 906.3 +20.8
СВ 5
{14}
н/о 10/4 1000 м
[Sc diur, vesp Ac cuf Ci sp]
+14.1 -0.8 36 +13 +13 1015.7 908.3
СВ 4 н/о 10/5 1000 м
[Cb cap Ac und]
+12.1 -4.4 31 +11 +11 1018.1 909.7
СВ 3 50 км 10/3 600 м
[Cb cap Ci sp]
+7.8 -5.2 39 +6 +6 1020.6 910.3
В 3 50 км 10/3 600 м
[Cb cap Ci sp]
+12.7 -7.7 23 +12 +14 1019.4 910.9 +6.0
С 4 50 км 8/3 600 м
[Cb cap Ci fib]
+15.1 -7.3 21 +14 +20 1017.8 910.4
С 4
{10}
50 км 6/0
[Ac cuf Ci fib]
+17.4 -9.5 15 +17 +25 1015.8 909.4
СЗ 2 50 км 6/4 1000 м
[Cu hum Ci sp]
+18.3 -9.6 14 +19 +22 1013.4 907.5
З 2 50 км 5/0
[Ac cast Ci sp]
+16.3 -3.0 26 +17 +17 1013.8 907.3 +19.1
З 4 н/о 4/0
[Ac lent Ci sp]
+11.4 +0.8 48 +10 +10 1016.6 908.2
СВ 2 н/о 3/0
[Ci sp]
+4.8 -6.1 45 +3 +3 1019.7 908.4
В 2 50 км 1/0
[Ci sp]
+1.4 -4.3 66 -2 -2 1021.1 908.4
штиль 0 50 км 10/0
[Ac cast Ci sp]
+11.7 -2.2 38 +12 +15 1016.5 908.1 +0.7
СЗ 3 50 км 5/3 1000 м
[Cu hum Ac trans Ci sp]
+16.3 -2.7 27 +16 +24 1013.0 906.6
С 3 50 км 8/6 600 м
[Cb calv Ci fib]
+20.1 -1.0 24 +20 +25 1008.8 904.2
СЗ 2
{19}
50 км 8/6 600 м
[Cb calv Ci sp]
+15.8 +2.9 42 +16 +18 1010.9 904.6
Ю 1
{13}
50 км {гроза, ливн. осадки} 9/4 600 м
[Cb calv Ac cuf Ci sp]
+11.3 +6.8 74 +11 +11 1013.4 905.4 +20.4 0.7
Ю 2 н/о 8/3 600 м
[Cb cap Ac lent Ci fib]
+7.0 +5.5 90 +5 +5 1016.4 906.5
Ю 1 н/о 3/0
[Ci sp]
+5.9 +4.7 92 +5 +5 1016.3 906.0
Ю 2 50 км 3/0
[Ci sp]
+2.6 +1.9 95 -1 -1 1017.3 905.6
Ю 2 50 км 4/0
[Ci sp]
+11.1 +6.8 75 +10 +15 1013.1 905.0 +2.4
З 1 50 км 3/3 1000 м
[Cu med, cong Ci fib]
+20.6 +2.1 29 +22 +34 комфорт 1007.8 903.4
Ю 3
{16}
50 км слаб. ливневой дождь 9/4 600 м
[Cb cap Ac cuf Ci sp]
+21.0 +0.8 26 +21 +26 комфорт 1005.7 901.7
ЮЗ 4
{11}
50 км {ливн. осадки} 6/3 1000 м
[Cb cap Ci sp]
+22.2 -0.5 22 +21 +24 комфорт 1002.8 899.5
З 4 50 км {ливн. осадки} 3/3 600 м
[Cb cap]
+17.8 +4.8 42 +18 +18 1004.2 899.3 +23.0 0.1
ЮЗ 3 н/о 8/3 600 м
[Cb cap Ci fib]
+12.5 +3.1 53 +11 +11 1006.3 899.4
ЮЗ 2 н/о 10/4 600 м
[Cb cap Ac As Ci sp]
+11.6 +2.3 53 +11 +11 1004.5 897.4
ЮЗ 3 50 км 10/0
[Ac cuf Ci sp]
+11.1 +2.7 56 +10 +10 1002.9 895.8
ЮЗ 4 50 км 10/3 600 м
[Cb cap Ac und]
+13.7 +4.9 55 +12 +13 1000.2 894.4 +10.5
ЮЗ 6-12
{12}
50 км 10/0
[Ci sp]
+21.2 +2.0 28 +21 +26 комфорт 994.5 891.7
ЮЗ 7-12
{14}
50 км 10/4 1000 м
[Cu med, cong Ci sp]
+23.9 +1.4 23 +23 +25 комфорт 990.2 888.8
СЗ 7-10
{12}
50 км 10/6 600 м
[Cb cap Ac und]
+20.7 +7.4 42 +22 +22 комфорт 990.7 888.3
СЗ 8-10
{12}
50 км 10/4 600 м
[Cb cap Ac cuf Ci sp]
+19.3 +5.7 41 +19 +19 992.7 889.6 +25.4
СЗ 7
{10}
н/о 10/3 600 м
[Cb cap Ac trans Ci sp]
+14.6 +6.1 57 +13 +13 996.8 891.7
СЗ 9-13
{14}
н/о слаб. ливневой дождь 10/5 600 м
[Cb cap Ac cuf]
+9.1 +5.4 78 +5 +5 1001.9 894.3
З 4
{13}
50 км {ливн. осадки} 10/3 600 м
[Cb cap Ac trans Ci sp]
+6.9 +1.2 67 +4 +4 1004.0 895.3
З 5 50 км {ливн. осадки} 9/1 600 м
[Cb cap Ac As Ci sp]
+7.5 +1.3 65 +4 +5 1005.1 896.5 +6.4 0.8
З 3 50 км 10/3 1000 м
[Cu med, cong Ci fib]
+13.0 -0.2 40 +12 +19 1003.7 897.2
З 3 50 км 10/3 1000 м
[Cu med, cong Cs]
+15.4 -2.2 30 +15 +22 1002.2 896.6
Местоположение метеостанции Сосново-Озерское (Бурятия, Россия): широта 52.53 долгота 111.50 высота над уровнем моря 951 м.
В архиве по умолчанию представлена погода в Сосново-Озерском за последнюю неделю. Архивные данные за месяц целиком и за предыдущие месяцы, начиная с января 2011 года, Вы можете получить, выбрав интересующий диапазон дат из раскрывающегося списка и нажав кнопку "Найти!".
*Определитесь, кто Вы:
Внимание! Время в таблицах - всемирное. Для получения местного времени необходимо прибавить поправку, которая равна 8 ч.
Смотрите также архив погоды в соседних городах и на ближайших метеорологических станциях:
Партнеры нашего сайта:      
Пояснения к столбцам:
  • Ветер - указаны скорость ветра в м/с - средняя за 10 мин, порывы в срок и между сроками (в фигурных скобках) и направление, откуда дует ветер: С - северный,
  • СВ - северо-восточный, В - восточный, ЮВ - юго-восточный, Ю - южный, ЮЗ - юго-западный, З - западный, СЗ - северо-западный.
  • Видимость - горизонтальная дальность видимости в метрах или километрах. При видимости от 1 до 10 км при отсутствии осадков обычно наблюдается дымка, при ухудшении видимости до 1 км и менее - туман. В сухую погоду видимость может ухудшаться дымом, пылью или мглою.
  • Явления - указаны атмосферные явления, наблюдавшиеся в срок или в последний час перед сроком; фигурными скобками обозначены явления, наблюдавшиеся между сроками (за 1-3 часа до срока); квадратными скобками обозначены град или гололедные отложения с указанием их диаметра в мм.
  • Облачность - указаны через наклонную черту общая и нижняя облачность в баллах и высота нижней границы облаков в метрах; квадратными скобками обозначены формы облаков: Ci - перистые, Cs - перисто-слоистые, Cc - перисто-кучевые, Ac - высококучевые, As - высокослоистые, Sc - слоисто-кучевые, Ns - слоисто-дождевые, Cu - кучевые, Cb - кучево-дождевые. Подробнее классификацию облаков см. в Атласе облаков (PDF).
  • T - Температура воздуха - температура, измеренная на высоте 2 м над землей.
  • Td - Температура точки росы - температура, при понижении до которой содержащийся в воздухе водяной пар достигнет насыщения.
  • f - Относительная влажность воздуха - влажноcть воздуха, измеренная на высоте 2 м над землей.
  • Te - Эффективная температура - температура, которую ощущает одетый по сезону человек в тени. Характеристика душности погоды. При расчете учитывается влияние влажности воздуха и скорости ветра на теплоощущения человека.
  • Tes - Эффективная температура на солнце - температура, которую ощущает человек, с поправкой на солнечный нагрев. Характеристика знойности погоды. Зависит от высоты солнца над горизонтом, облачности и скорости ветра. Ночью, в пасмурную погоду, а также при ветре 12 м/с и более поправка равна нулю.
  • P - Атмосферное давление - приведенное к уровню моря атмосферное давление.
  • Po - Атмосферное давление - измеренное на уровне метеостанции атмосферное давление.
  • Tmin - Минимальная температура - минимум температуры воздуха на высоте 2 м над землей.
  • Tmax - Максимальная температура - максимум температуры воздуха на высоте 2 м над землей.
  • R - Количество осадков - Количество выпавших осадков за период времени, мм. При наведении курсора мыши на число - период времени, за который выпало указанное количество осадков.
  • R24 - Количество осадков - Количество выпавших осадков за 24 часа, мм.
  • S - Снежный покров - Высота снежного покрова, см. При наведении курсора мыши на число - состояние снежного покрова и степень покрытия местности в баллах.